Weather History for Tulsa, OK

Change the Weather History Date:

Monday, January 2, 2012

  Actual Average Record
Temperature  
Mean Temperature 35 °F 37 °F  
Max Temperature 45 °F 47 °F 76 °F (2004)
Min Temperature 24 °F 28 °F 2 °F (2001)
Degree Days  
Heating Degree Days 30 28  
Month to date heating degree days 50 56  
Since 1 July heating degree days 1320 1484  
Moisture  
Dew Point 11 °F    
Average Humidity 39    
Maximum Humidity 59    
Minimum Humidity 18    
Precipitation  
Precipitation 0.00 in 0.06 in 0.90 in (1951)
Month to date precipitation 0.00 0.12  
Year to date precipitation 0.00 0.12  
Sea Level Pressure  
Sea Level Pressure 30.66 in    
Wind  
Wind Speed 8 mph (NW)    
Max Wind Speed 17 mph    
Max Gust Speed 21 mph    
Visibility 10 miles    
Events      
T = Trace of Precipitation, MM = Missing Value Source: NWS Daily Summary

Daily Weather History Graph

Daily Weather History Graph

Search for Another Location

Airport:

Trip Planner

Search our weather history database for the weather conditions in past years. The results will help you decide how hot, cold, wet, or windy it might be!

Date:

Astronomy

Jan. 02, 2012 Rise Set
Actual Time 7:34 AM CST 5:20 PM CST
Civil Twilight 7:06 AM CST 5:48 PM CST
Nautical Twilight 6:34 AM CST 6:20 PM CST
Astronomical Twilight 6:02 AM CST 6:52 PM CST
Moon 12:33 PM CST (1/2) 1:33 AM CST (1/2)
Length of Visible Light 10h 42m
Length of Day
9h 45m
Waxing Gibbous, 64% of the Moon is Illuminated
Jan 2
Waxing Gibbous
Jan 9
Full
Jan 16
Last Quarter
Jan 23
New
Jan 30
First Quarter

Hourly Weather History & Observations

Time (CST) Temp. Windchill Dew Point Humidity Pressure Visibility Wind Dir Wind Speed Gust Speed Precip Events Conditions
12:53 AM 37.9 °F 32.1 °F 24.1 °F 57% 30.62 in 10.0 mi NW 8.1 mph - N/A   Clear
1:53 AM 37.9 °F 29.6 °F 19.9 °F 48% 30.64 in 10.0 mi North 13.8 mph - N/A   Clear
2:53 AM 34.0 °F 25.5 °F 14.0 °F 44% 30.66 in 10.0 mi North 11.5 mph - N/A   Clear
3:53 AM 33.1 °F 23.4 °F 10.9 °F 40% 30.68 in 10.0 mi NNW 13.8 mph - N/A   Clear
4:53 AM 28.9 °F 21.9 °F 10.0 °F 45% 30.68 in 10.0 mi NW 6.9 mph - N/A   Clear
5:53 AM 28.9 °F 21.1 °F 10.0 °F 45% 30.70 in 10.0 mi WNW 8.1 mph - N/A   Clear
6:53 AM 28.9 °F 20.4 °F 10.0 °F 45% 30.71 in 10.0 mi NW 9.2 mph - N/A   Clear
7:53 AM 27.0 °F 18.0 °F 10.0 °F 49% 30.74 in 10.0 mi NW 9.2 mph - N/A   Clear
8:53 AM 30.9 °F 22.8 °F 10.9 °F 43% 30.75 in 10.0 mi NW 9.2 mph - N/A   Clear
9:53 AM 35.6 °F 28.0 °F 10.4 °F 35% 30.75 in 10.0 mi NNW 10.4 mph - N/A   Clear
10:53 AM 37.0 °F 29.3 °F 10.0 °F 33% 30.77 in 10.0 mi NNW 11.5 mph 19.6 mph N/A   Clear
11:53 AM 39.0 °F 31.8 °F 7.0 °F 27% 30.73 in 10.0 mi NNW 11.5 mph - N/A   Clear
12:53 PM 41.0 °F 34.7 °F 3.2 °F 21% 30.68 in 10.0 mi North 10.4 mph - N/A   Partly Cloudy
1:53 PM 42.8 °F 36.2 °F 3.2 °F 19% 30.63 in 10.0 mi NW 12.7 mph - N/A   Clear
2:53 PM 45.0 °F 39.3 °F 3.0 °F 18% 30.62 in 10.0 mi WNW 11.5 mph - N/A   Clear
3:53 PM 44.1 °F 37.1 °F 6.1 °F 21% 30.63 in 10.0 mi WNW 15.0 mph - N/A   Clear
4:53 PM 42.1 °F 36.1 °F 7.0 °F 24% 30.62 in 10.0 mi NW 10.4 mph - N/A   Clear
5:53 PM 37.9 °F 34.4 °F 9.0 °F 30% 30.60 in 10.0 mi WNW 4.6 mph - N/A   Clear
6:53 PM 35.1 °F 29.3 °F 10.9 °F 37% 30.61 in 10.0 mi WNW 6.9 mph - N/A   Clear
7:53 PM 30.9 °F - 12.0 °F 46% 30.61 in 10.0 mi Calm Calm - N/A   Clear
8:53 PM 32.0 °F 28.7 °F 12.0 °F 44% 30.60 in 10.0 mi West 3.5 mph - N/A   Clear
9:53 PM 30.0 °F - 12.9 °F 49% 30.59 in 10.0 mi Calm Calm - N/A   Clear
10:53 PM 30.9 °F - 12.9 °F 47% 30.57 in 10.0 mi Calm Calm - N/A   Clear
11:53 PM 26.1 °F - 12.9 °F 58% 30.56 in 10.0 mi Calm Calm - N/A   Clear